Time,TemperatureF,DewpointF,PressureIn,WindDirection,WindDirectionDegrees,WindSpeedMPH,WindSpeedGustMPH,Humidity,HourlyPrecipIn,Conditions,Clouds,dailyrainin,SoftwareType,DateUTC
2013-03-16 00:00:00,54.4,33.8,29.86,SSE,158,0.4,0.7,46,0.00,,,0.00,WUHU216HW,2013-03-16 04:00:00,
2013-03-16 00:05:00,54.2,33.8,29.86,SE,135,0.4,1.1,46,0.00,,,0.00,WUHU216HW,2013-03-16 04:05:00,
2013-03-16 00:10:00,54.0,33.6,29.86,SE,135,1.1,1.1,46,0.00,,,0.00,WUHU216HW,2013-03-16 04:10:00,
2013-03-16 00:15:00,54.0,33.6,29.85,SSE,158,0.0,1.8,46,0.00,,,0.00,WUHU216HW,2013-03-16 04:15:00,
2013-03-16 00:20:00,54.0,33.6,29.85,East,90,0.9,1.8,46,0.00,,,0.00,WUHU216HW,2013-03-16 04:20:00,
2013-03-16 00:25:00,54.0,33.6,29.85,SSW,203,0.0,1.6,46,0.00,,,0.00,WUHU216HW,2013-03-16 04:25:00,
2013-03-16 00:30:00,53.8,33.4,29.85,South,180,0.0,0.9,46,0.00,,,0.00,WUHU216HW,2013-03-16 04:30:00,
2013-03-16 00:35:00,53.6,33.2,29.85,SSE,158,0.4,2.0,46,0.00,,,0.00,WUHU216HW,2013-03-16 04:35:00,
2013-03-16 00:40:00,53.6,33.2,29.85,SSE,158,0.9,2.0,46,0.00,,,0.00,WUHU216HW,2013-03-16 04:40:00,
2013-03-16 00:45:00,53.5,33.7,29.85,SSE,158,0.0,1.8,47,0.00,,,0.00,WUHU216HW,2013-03-16 04:45:00,
2013-03-16 00:50:00,53.3,33.5,29.85,SSE,158,0.9,2.0,47,0.00,,,0.00,WUHU216HW,2013-03-16 04:50:00,
2013-03-16 00:55:00,53.3,33.5,29.85,SSE,158,0.0,2.0,47,0.00,,,0.00,WUHU216HW,2013-03-16 04:55:00,
2013-03-16 01:00:00,53.1,33.3,29.85,SSE,158,1.1,1.1,47,0.00,,,0.00,WUHU216HW,2013-03-16 05:00:00,
2013-03-16 01:05:00,53.1,33.3,29.84,SE,135,0.4,1.8,47,0.00,,,0.00,WUHU216HW,2013-03-16 05:05:00,
2013-03-16 01:10:00,53.1,33.3,29.84,SSE,158,0.4,1.8,47,0.00,,,0.00,WUHU216HW,2013-03-16 05:10:00,
2013-03-16 01:15:00,52.9,33.1,29.84,SSW,203,0.2,1.6,47,0.00,,,0.00,WUHU216HW,2013-03-16 05:15:00,
2013-03-16 01:20:00,52.9,33.7,29.84,SSW,203,1.1,1.3,48,0.00,,,0.00,WUHU216HW,2013-03-16 05:20:00,
2013-03-16 01:25:00,52.9,33.7,29.84,SSE,158,0.9,1.3,48,0.00,,,0.00,WUHU216HW,2013-03-16 05:25:00,
2013-03-16 01:30:00,52.7,33.6,29.84,South,180,0.4,1.1,48,0.00,,,0.00,WUHU216HW,2013-03-16 05:30:00,
2013-03-16 01:35:00,52.7,33.6,29.84,SSW,203,0.4,1.3,48,0.00,,,0.00,WUHU216HW,2013-03-16 05:35:00,
2013-03-16 01:40:00,52.6,33.9,29.84,SW,225,0.4,1.6,49,0.00,,,0.00,WUHU216HW,2013-03-16 05:40:00,
2013-03-16 01:45:00,52.6,33.9,29.84,SSE,158,1.1,1.8,49,0.00,,,0.00,WUHU216HW,2013-03-16 05:45:00,
2013-03-16 01:50:00,52.6,33.9,29.83,SW,225,1.1,1.8,49,0.00,,,0.00,WUHU216HW,2013-03-16 05:50:00,
2013-03-16 01:55:00,52.4,34.3,29.83,SSE,158,1.3,3.1,50,0.00,,,0.00,WUHU216HW,2013-03-16 05:55:00,
2013-03-16 02:00:00,52.4,33.8,29.83,SSE,158,1.1,3.1,49,0.00,,,0.00,WUHU216HW,2013-03-16 06:00:00,
2013-03-16 02:05:00,52.2,34.2,29.83,SSE,158,0.9,2.0,50,0.00,,,0.00,WUHU216HW,2013-03-16 06:05:00,
2013-03-16 02:10:00,52.2,34.2,29.83,South,180,1.1,1.6,50,0.00,,,0.00,WUHU216HW,2013-03-16 06:10:00,
2013-03-16 02:15:00,52.2,34.2,29.83,South,180,0.7,1.6,50,0.00,,,0.00,WUHU216HW,2013-03-16 06:15:00,
2013-03-16 02:20:00,52.2,34.2,29.82,SW,225,0.7,1.6,50,0.00,,,0.00,WUHU216HW,2013-03-16 06:20:00,
2013-03-16 02:25:00,52.0,34.0,29.82,SSW,203,1.1,1.3,50,0.00,,,0.00,WUHU216HW,2013-03-16 06:25:00,
2013-03-16 02:30:00,52.2,34.7,29.82,SW,225,0.7,1.8,51,0.00,,,0.00,WUHU216HW,2013-03-16 06:30:00,
2013-03-16 02:35:00,52.0,34.5,29.82,SW,225,0.7,1.8,51,0.00,,,0.00,WUHU216HW,2013-03-16 06:35:00,
2013-03-16 02:40:00,52.0,34.5,29.82,SW,225,0.7,1.8,51,0.00,,,0.00,WUHU216HW,2013-03-16 06:40:00,
2013-03-16 02:45:00,51.8,34.3,29.82,WSW,248,1.1,1.8,51,0.00,,,0.00,WUHU216HW,2013-03-16 06:45:00,
2013-03-16 02:50:00,51.8,34.7,29.82,SW,225,1.6,1.8,52,0.00,,,0.00,WUHU216HW,2013-03-16 06:50:00,
2013-03-16 02:55:00,51.8,34.7,29.82,WSW,248,0.7,1.8,52,0.00,,,0.00,WUHU216HW,2013-03-16 06:55:00,
2013-03-16 03:00:00,51.8,34.7,29.81,WSW,248,1.6,1.8,52,0.00,,,0.00,WUHU216HW,2013-03-16 07:00:00,
2013-03-16 03:05:00,51.8,34.7,29.81,SW,225,1.6,1.8,52,0.00,,,0.00,WUHU216HW,2013-03-16 07:05:00,
2013-03-16 03:10:00,51.8,35.2,29.81,SW,225,1.6,1.8,53,0.00,,,0.00,WUHU216HW,2013-03-16 07:10:00,
2013-03-16 03:15:00,51.7,35.0,29.81,SSW,203,0.4,1.8,53,0.00,,,0.00,WUHU216HW,2013-03-16 07:15:00,
2013-03-16 03:20:00,51.7,35.0,29.81,SW,225,0.9,1.8,53,0.00,,,0.00,WUHU216HW,2013-03-16 07:20:00,
2013-03-16 03:25:00,51.7,35.0,29.80,SW,225,0.9,2.0,53,0.00,,,0.00,WUHU216HW,2013-03-16 07:25:00,
2013-03-16 03:30:00,51.5,34.8,29.80,South,180,1.1,2.0,53,0.00,,,0.00,WUHU216HW,2013-03-16 07:30:00,
2013-03-16 03:35:00,51.5,34.8,29.80,SSW,203,0.7,2.0,53,0.00,,,0.00,WUHU216HW,2013-03-16 07:35:00,
2013-03-16 03:40:00,51.5,35.3,29.80,SSW,203,1.1,2.0,54,0.00,,,0.00,WUHU216HW,2013-03-16 07:40:00,
2013-03-16 03:45:00,51.5,35.3,29.80,SSW,203,1.1,1.6,54,0.00,,,0.00,WUHU216HW,2013-03-16 07:45:00,
2013-03-16 03:50:00,51.5,35.3,29.80,SSW,203,0.2,1.3,54,0.00,,,0.00,WUHU216HW,2013-03-16 07:50:00,
2013-03-16 03:55:00,51.5,35.3,29.80,WSW,248,1.8,1.8,54,0.00,,,0.00,WUHU216HW,2013-03-16 07:55:00,
2013-03-16 04:00:00,51.3,35.2,29.79,South,180,0.9,1.8,54,0.00,,,0.00,WUHU216HW,2013-03-16 08:00:00,
2013-03-16 04:05:00,51.3,35.2,29.79,SSW,203,0.4,1.8,54,0.00,,,0.00,WUHU216HW,2013-03-16 08:05:00,
2013-03-16 04:10:00,51.3,35.2,29.79,SSW,203,0.7,1.3,54,0.00,,,0.00,WUHU216HW,2013-03-16 08:10:00,
2013-03-16 04:15:00,51.3,35.7,29.79,SSW,203,0.9,1.3,55,0.00,,,0.00,WUHU216HW,2013-03-16 08:15:00,
2013-03-16 04:20:00,51.1,35.5,29.79,SW,225,0.7,1.3,55,0.00,,,0.00,WUHU216HW,2013-03-16 08:20:00,
2013-03-16 04:25:00,51.1,35.5,29.79,SW,225,0.4,1.8,55,0.00,,,0.00,WUHU216HW,2013-03-16 08:25:00,
2013-03-16 04:30:00,51.1,35.5,29.79,SW,225,1.1,2.0,55,0.00,,,0.00,WUHU216HW,2013-03-16 08:30:00,
2013-03-16 04:35:00,50.9,35.3,29.79,SSW,203,1.8,2.0,55,0.00,,,0.00,WUHU216HW,2013-03-16 08:35:00,
2013-03-16 04:40:00,51.1,35.5,29.79,SW,225,1.8,2.0,55,0.00,,,0.00,WUHU216HW,2013-03-16 08:40:00,
2013-03-16 04:45:00,50.9,35.7,29.79,West,270,0.2,2.0,56,0.00,,,0.00,WUHU216HW,2013-03-16 08:45:00,
2013-03-16 04:50:00,50.9,35.7,29.78,SSE,158,0.7,2.0,56,0.00,,,0.00,WUHU216HW,2013-03-16 08:50:00,
2013-03-16 04:55:00,50.9,35.7,29.78,SSW,203,0.7,2.0,56,0.00,,,0.00,WUHU216HW,2013-03-16 08:55:00,
2013-03-16 05:00:00,50.9,36.2,29.78,SSW,203,0.4,2.0,57,0.00,,,0.00,WUHU216HW,2013-03-16 09:00:00,
2013-03-16 05:05:00,50.9,36.2,29.78,SW,225,1.8,2.0,57,0.00,,,0.00,WUHU216HW,2013-03-16 09:05:00,
2013-03-16 05:10:00,50.9,36.2,29.78,SW,225,1.1,1.8,57,0.00,,,0.00,WUHU216HW,2013-03-16 09:10:00,
2013-03-16 05:15:00,50.8,36.0,29.78,SSW,203,1.1,1.8,57,0.00,,,0.00,WUHU216HW,2013-03-16 09:15:00,
2013-03-16 05:20:00,50.9,36.2,29.78,SSE,158,0.9,1.3,57,0.00,,,0.00,WUHU216HW,2013-03-16 09:20:00,
2013-03-16 05:25:00,50.8,36.0,29.78,SSE,158,0.4,1.1,57,0.00,,,0.00,WUHU216HW,2013-03-16 09:25:00,
2013-03-16 05:30:00,50.8,36.0,29.78,SSW,203,0.0,1.3,57,0.00,,,0.00,WUHU216HW,2013-03-16 09:30:00,
2013-03-16 05:35:00,50.8,36.0,29.79,SSW,203,0.7,1.3,57,0.00,,,0.00,WUHU216HW,2013-03-16 09:35:00,
2013-03-16 05:40:00,50.8,36.0,29.79,SSW,203,0.9,1.3,57,0.00,,,0.00,WUHU216HW,2013-03-16 09:40:00,
2013-03-16 05:45:00,50.8,36.0,29.79,SSE,158,0.7,1.8,57,0.00,,,0.00,WUHU216HW,2013-03-16 09:45:00,
2013-03-16 05:50:00,50.8,36.0,29.79,SSW,203,0.9,1.8,57,0.00,,,0.00,WUHU216HW,2013-03-16 09:50:00,
2013-03-16 05:55:00,50.8,36.5,29.79,SSW,203,0.4,1.3,58,0.00,,,0.00,WUHU216HW,2013-03-16 09:55:00,
2013-03-16 06:00:00,50.8,36.5,29.79,SSE,158,0.7,1.6,58,0.00,,,0.00,WUHU216HW,2013-03-16 10:00:00,
2013-03-16 06:05:00,50.8,36.5,29.79,SSW,203,0.7,1.6,58,0.00,,,0.00,WUHU216HW,2013-03-16 10:05:00,
2013-03-16 06:10:00,50.6,36.3,29.79,South,180,0.4,1.1,58,0.00,,,0.00,WUHU216HW,2013-03-16 10:10:00,
2013-03-16 06:15:00,50.4,36.2,29.79,SSE,158,0.4,1.8,58,0.00,,,0.00,WUHU216HW,2013-03-16 10:15:00,
2013-03-16 06:20:00,50.6,36.7,29.79,SSW,203,0.4,1.8,59,0.00,,,0.00,WUHU216HW,2013-03-16 10:20:00,
2013-03-16 06:25:00,50.4,36.2,29.79,SW,225,0.7,1.8,58,0.00,,,0.00,WUHU216HW,2013-03-16 10:25:00,
2013-03-16 06:30:00,50.6,36.7,29.79,SSE,158,0.4,0.9,59,0.00,,,0.00,WUHU216HW,2013-03-16 10:30:00,
2013-03-16 06:35:00,50.6,36.3,29.79,SSW,203,0.4,1.3,58,0.00,,,0.00,WUHU216HW,2013-03-16 10:35:00,
2013-03-16 06:40:00,50.6,36.7,29.79,SSE,158,1.1,1.8,59,0.00,,,0.00,WUHU216HW,2013-03-16 10:40:00,
2013-03-16 06:45:00,50.6,36.7,29.79,South,180,0.4,1.8,59,0.00,,,0.00,WUHU216HW,2013-03-16 10:45:00,
2013-03-16 06:50:00,50.6,36.7,29.79,SSE,158,0.9,1.3,59,0.00,,,0.00,WUHU216HW,2013-03-16 10:50:00,
2013-03-16 06:55:00,50.6,36.7,29.79,SSW,203,0.2,1.1,59,0.00,,,0.00,WUHU216HW,2013-03-16 10:55:00,
2013-03-16 07:00:00,50.6,36.7,29.79,SSE,158,0.2,1.1,59,0.00,,,0.00,WUHU216HW,2013-03-16 11:00:00,
2013-03-16 07:05:00,50.8,36.9,29.79,South,180,0.4,0.9,59,0.00,,,0.00,WUHU216HW,2013-03-16 11:05:00,
2013-03-16 07:10:00,50.6,37.2,29.80,SW,225,0.2,0.9,60,0.00,,,0.00,WUHU216HW,2013-03-16 11:10:00,
2013-03-16 07:15:00,50.6,36.7,29.80,SSE,158,0.4,0.9,59,0.00,,,0.00,WUHU216HW,2013-03-16 11:15:00,
2013-03-16 07:20:00,50.8,36.9,29.80,SE,135,0.0,0.7,59,0.00,,,0.00,WUHU216HW,2013-03-16 11:20:00,
2013-03-16 07:25:00,50.8,37.4,29.80,SSE,158,0.2,0.7,60,0.00,,,0.00,WUHU216HW,2013-03-16 11:25:00,
2013-03-16 07:30:00,50.8,37.4,29.80,SSE,158,0.7,0.7,60,0.00,,,0.00,WUHU216HW,2013-03-16 11:30:00,
2013-03-16 07:35:00,50.8,37.4,29.80,SSE,158,1.1,1.1,60,0.00,,,0.00,WUHU216HW,2013-03-16 11:35:00,
2013-03-16 07:40:00,50.8,37.4,29.80,SSE,158,1.1,1.1,60,0.00,,,0.00,WUHU216HW,2013-03-16 11:40:00,
2013-03-16 07:45:00,50.8,37.8,29.80,SE,135,1.1,1.1,61,0.00,,,0.00,WUHU216HW,2013-03-16 11:45:00,
2013-03-16 07:50:00,50.8,37.4,29.80,South,180,0.4,1.6,60,0.00,,,0.00,WUHU216HW,2013-03-16 11:50:00,
2013-03-16 07:55:00,50.8,37.8,29.80,SSE,158,0.2,1.6,61,0.00,,,0.00,WUHU216HW,2013-03-16 11:55:00,
2013-03-16 08:00:00,50.9,38.0,29.80,South,180,0.2,1.6,61,0.00,,,0.00,WUHU216HW,2013-03-16 12:00:00,
2013-03-16 08:05:00,51.1,38.1,29.80,WSW,248,0.9,1.6,61,0.00,,,0.00,WUHU216HW,2013-03-16 12:05:00,
2013-03-16 08:10:00,51.1,38.5,29.79,SSE,158,0.7,1.6,62,0.00,,,0.00,WUHU216HW,2013-03-16 12:10:00,
2013-03-16 08:15:00,51.1,38.5,29.79,SSE,158,0.7,1.6,62,0.00,,,0.00,WUHU216HW,2013-03-16 12:15:00,
2013-03-16 08:20:00,51.1,38.5,29.79,SSE,158,1.8,1.8,62,0.00,,,0.00,WUHU216HW,2013-03-16 12:20:00,
2013-03-16 08:25:00,51.3,38.7,29.79,SSE,158,0.4,1.8,62,0.00,,,0.00,WUHU216HW,2013-03-16 12:25:00,
2013-03-16 08:30:00,51.3,38.3,29.79,SE,135,0.4,1.8,61,0.00,,,0.00,WUHU216HW,2013-03-16 12:30:00,
2013-03-16 08:35:00,51.5,38.9,29.79,South,180,1.1,1.3,62,0.00,,,0.00,WUHU216HW,2013-03-16 12:35:00,
2013-03-16 08:40:00,51.5,38.9,29.79,South,180,0.4,1.3,62,0.00,,,0.00,WUHU216HW,2013-03-16 12:40:00,
2013-03-16 08:45:00,51.8,39.2,29.80,SSW,203,1.8,1.8,62,0.00,,,0.00,WUHU216HW,2013-03-16 12:45:00,
2013-03-16 08:50:00,51.8,39.2,29.79,SSE,158,0.4,1.8,62,0.00,,,0.00,WUHU216HW,2013-03-16 12:50:00,
2013-03-16 08:55:00,52.2,39.5,29.79,SSE,158,0.9,1.8,62,0.00,,,0.00,WUHU216HW,2013-03-16 12:55:00,
2013-03-16 09:00:00,52.2,40.0,29.79,SE,135,1.6,1.6,63,0.00,,,0.00,WUHU216HW,2013-03-16 13:00:00,
2013-03-16 09:05:00,52.4,40.5,29.79,WSW,248,1.6,1.8,64,0.00,,,0.00,WUHU216HW,2013-03-16 13:05:00,
2013-03-16 09:10:00,52.6,40.7,29.79,West,270,0.4,2.2,64,0.00,,,0.00,WUHU216HW,2013-03-16 13:10:00,
2013-03-16 09:15:00,52.7,40.9,29.80,SSE,158,0.9,2.2,64,0.00,,,0.00,WUHU216HW,2013-03-16 13:15:00,
2013-03-16 09:20:00,52.7,40.9,29.80,South,180,0.7,1.3,64,0.00,,,0.00,WUHU216HW,2013-03-16 13:20:00,
2013-03-16 09:25:00,52.9,41.1,29.80,South,180,0.9,1.3,64,0.00,,,0.00,WUHU216HW,2013-03-16 13:25:00,
2013-03-16 09:30:00,53.3,41.4,29.80,SSE,158,0.4,1.6,64,0.00,,,0.00,WUHU216HW,2013-03-16 13:30:00,
2013-03-16 09:35:00,53.6,41.8,29.80,SSW,203,1.3,1.6,64,0.00,,,0.00,WUHU216HW,2013-03-16 13:35:00,
2013-03-16 09:40:00,53.6,41.8,29.80,South,180,1.1,1.6,64,0.00,,,0.00,WUHU216HW,2013-03-16 13:40:00,
2013-03-16 09:45:00,54.0,42.5,29.80,SSW,203,1.8,3.1,65,0.00,,,0.00,WUHU216HW,2013-03-16 13:45:00,
2013-03-16 09:50:00,54.4,42.4,29.80,SE,135,1.8,3.1,64,0.00,,,0.00,WUHU216HW,2013-03-16 13:50:00,
2013-03-16 09:55:00,54.5,42.6,29.80,SSW,203,0.9,2.9,64,0.00,,,0.00,WUHU216HW,2013-03-16 13:55:00,
2013-03-16 10:00:00,54.7,42.8,29.79,South,180,2.0,2.9,64,0.00,,,0.00,WUHU216HW,2013-03-16 14:00:00,
2013-03-16 10:05:00,54.9,42.9,29.79,SW,225,0.9,2.0,64,0.00,,,0.00,WUHU216HW,2013-03-16 14:05:00,
2013-03-16 10:10:00,55.1,43.1,29.79,WSW,248,0.2,2.0,64,0.00,,,0.00,WUHU216HW,2013-03-16 14:10:00,
2013-03-16 10:15:00,55.4,43.8,29.79,SSE,158,0.7,1.8,65,0.00,,,0.00,WUHU216HW,2013-03-16 14:15:00,
2013-03-16 10:20:00,55.6,43.6,29.79,SSE,158,1.8,3.1,64,0.00,,,0.00,WUHU216HW,2013-03-16 14:20:00,
2013-03-16 10:25:00,55.8,43.7,29.79,SSW,203,1.1,3.1,64,0.00,,,0.00,WUHU216HW,2013-03-16 14:25:00,
2013-03-16 10:30:00,56.2,44.6,29.79,SSW,203,0.4,2.5,65,0.00,,,0.00,WUHU216HW,2013-03-16 14:30:00,
2013-03-16 10:35:00,56.3,44.7,29.78,SSW,203,2.5,2.5,65,0.00,,,0.00,WUHU216HW,2013-03-16 14:35:00,
2013-03-16 10:40:00,56.5,44.8,29.78,South,180,0.0,2.5,65,0.00,,,0.00,WUHU216HW,2013-03-16 14:40:00,
2013-03-16 10:45:00,56.5,44.8,29.78,SE,135,1.3,2.5,65,0.00,,,0.00,WUHU216HW,2013-03-16 14:45:00,
2013-03-16 10:50:00,56.7,45.5,29.78,SSW,203,2.0,2.5,66,0.00,,,0.00,WUHU216HW,2013-03-16 14:50:00,
2013-03-16 10:55:00,56.7,45.0,29.78,SSW,203,1.1,2.5,65,0.00,,,0.00,WUHU216HW,2013-03-16 14:55:00,
2013-03-16 11:00:00,56.9,45.2,29.78,SW,225,2.0,2.5,65,0.00,,,0.00,WUHU216HW,2013-03-16 15:00:00,
2013-03-16 11:05:00,56.9,45.2,29.78,West,270,2.5,2.5,65,0.00,,,0.00,WUHU216HW,2013-03-16 15:05:00,
2013-03-16 11:10:00,57.2,45.2,29.77,SW,225,2.0,2.5,64,0.00,,,0.00,WUHU216HW,2013-03-16 15:10:00,
2013-03-16 11:15:00,57.4,45.3,29.77,WSW,248,2.0,2.5,64,0.00,,,0.00,WUHU216HW,2013-03-16 15:15:00,
2013-03-16 11:20:00,58.0,45.8,29.77,SSE,158,2.5,3.4,64,0.00,,,0.00,WUHU216HW,2013-03-16 15:20:00,
2013-03-16 11:25:00,58.3,46.2,29.77,SE,135,0.4,3.4,64,0.00,,,0.00,WUHU216HW,2013-03-16 15:25:00,
2013-03-16 11:30:00,58.7,46.5,29.77,SSE,158,0.4,2.5,64,0.00,,,0.00,WUHU216HW,2013-03-16 15:30:00,
2013-03-16 11:35:00,59.0,46.5,29.76,SE,135,2.2,2.5,63,0.00,,,0.00,WUHU216HW,2013-03-16 15:35:00,
2013-03-16 11:40:00,59.4,46.4,29.76,SW,225,1.8,4.7,62,0.00,,,0.00,WUHU216HW,2013-03-16 15:40:00,
2013-03-16 11:45:00,59.6,46.5,29.76,South,180,1.1,4.7,62,0.00,,,0.00,WUHU216HW,2013-03-16 15:45:00,
2013-03-16 11:50:00,59.9,46.9,29.76,SE,135,2.5,2.5,62,0.00,,,0.00,WUHU216HW,2013-03-16 15:50:00,
2013-03-16 11:55:00,60.1,47.1,29.75,WSW,248,1.1,2.5,62,0.00,,,0.00,WUHU216HW,2013-03-16 15:55:00,
2013-03-16 12:00:00,60.7,47.3,29.75,SE,135,1.1,2.5,61,0.00,,,0.00,WUHU216HW,2013-03-16 16:00:00,
2013-03-16 12:05:00,60.8,47.4,29.75,SE,135,1.1,2.7,61,0.00,,,0.00,WUHU216HW,2013-03-16 16:05:00,
2013-03-16 12:10:00,61.4,47.4,29.75,SSW,203,1.1,2.7,60,0.00,,,0.00,WUHU216HW,2013-03-16 16:10:00,
2013-03-16 12:15:00,61.7,47.8,29.74,North,0,1.6,2.5,60,0.00,,,0.00,WUHU216HW,2013-03-16 16:15:00,
2013-03-16 12:20:00,62.3,47.8,29.74,SW,225,1.3,4.0,59,0.00,,,0.00,WUHU216HW,2013-03-16 16:20:00,
2013-03-16 12:25:00,62.8,48.2,29.74,South,180,2.5,4.0,59,0.00,,,0.00,WUHU216HW,2013-03-16 16:25:00,
2013-03-16 12:30:00,63.4,48.2,29.73,SSE,158,1.1,3.8,58,0.00,,,0.00,WUHU216HW,2013-03-16 16:30:00,
2013-03-16 12:35:00,63.7,48.2,29.74,WSW,248,3.4,3.8,57,0.00,,,0.00,WUHU216HW,2013-03-16 16:35:00,
2013-03-16 12:40:00,64.4,48.8,29.74,ESE,113,3.4,3.4,57,0.00,,,0.00,WUHU216HW,2013-03-16 16:40:00,
2013-03-16 12:45:00,65.2,48.1,29.74,SW,225,1.8,3.4,54,0.00,,,0.00,WUHU216HW,2013-03-16 16:45:00,
2013-03-16 12:50:00,65.7,48.6,29.73,SSE,158,0.4,3.4,54,0.00,,,0.00,WUHU216HW,2013-03-16 16:50:00,
2013-03-16 12:55:00,66.1,49.0,29.73,South,180,1.8,3.4,54,0.00,,,0.00,WUHU216HW,2013-03-16 16:55:00,
2013-03-16 13:00:00,66.6,49.0,29.73,SW,225,2.7,4.5,53,0.00,,,0.00,WUHU216HW,2013-03-16 17:00:00,
2013-03-16 13:05:00,67.5,49.2,29.72,West,270,3.8,4.7,52,0.00,,,0.00,WUHU216HW,2013-03-16 17:05:00,
2013-03-16 13:10:00,68.0,49.8,29.72,WSW,248,1.8,4.7,52,0.00,,,0.00,WUHU216HW,2013-03-16 17:10:00,
2013-03-16 13:15:00,68.6,49.2,29.72,WSW,248,2.5,4.3,50,0.00,,,0.00,WUHU216HW,2013-03-16 17:15:00,
2013-03-16 13:20:00,68.8,49.4,29.72,WNW,293,3.4,4.0,50,0.00,,,0.00,WUHU216HW,2013-03-16 17:20:00,
2013-03-16 13:25:00,69.1,49.1,29.72,South,180,3.1,4.0,49,0.00,,,0.00,WUHU216HW,2013-03-16 17:25:00,
2013-03-16 13:30:00,69.7,49.1,29.72,WSW,248,4.0,5.8,48,0.00,,,0.00,WUHU216HW,2013-03-16 17:30:00,
2013-03-16 13:35:00,70.0,50.0,29.71,WSW,248,2.5,6.0,49,0.00,,,0.00,WUHU216HW,2013-03-16 17:35:00,
2013-03-16 13:40:00,70.2,49.0,29.71,SW,225,4.5,6.0,47,0.00,,,0.00,WUHU216HW,2013-03-16 17:40:00,
2013-03-16 13:45:00,70.4,49.2,29.71,WSW,248,1.6,5.4,47,0.00,,,0.00,WUHU216HW,2013-03-16 17:45:00,
2013-03-16 13:50:00,70.6,48.7,29.71,South,180,3.1,6.3,46,0.00,,,0.00,WUHU216HW,2013-03-16 17:50:00,
2013-03-16 13:55:00,70.6,48.1,29.71,NW,315,4.9,7.6,45,0.00,,,0.00,WUHU216HW,2013-03-16 17:55:00,
2013-03-16 14:00:00,70.9,49.0,29.70,ESE,113,2.0,7.6,46,0.00,,,0.00,WUHU216HW,2013-03-16 18:00:00,
2013-03-16 14:05:00,71.1,49.1,29.70,WSW,248,2.0,6.0,46,0.00,,,0.00,WUHU216HW,2013-03-16 18:05:00,
2013-03-16 14:10:00,71.5,49.5,29.70,South,180,2.5,6.0,46,0.00,,,0.00,WUHU216HW,2013-03-16 18:10:00,
2013-03-16 14:15:00,72.0,49.4,29.70,SE,135,3.6,4.7,45,0.00,,,0.00,WUHU216HW,2013-03-16 18:15:00,
2013-03-16 14:20:00,72.2,49.5,29.69,South,180,1.3,4.3,45,0.00,,,0.00,WUHU216HW,2013-03-16 18:20:00,
2013-03-16 14:25:00,72.5,49.9,29.69,SSW,203,1.6,4.7,45,0.00,,,0.00,WUHU216HW,2013-03-16 18:25:00,
2013-03-16 14:30:00,72.9,49.6,29.69,SE,135,1.8,5.4,44,0.00,,,0.00,WUHU216HW,2013-03-16 18:30:00,
2013-03-16 14:35:00,73.1,50.3,29.68,SW,225,3.1,5.4,45,0.00,,,0.00,WUHU216HW,2013-03-16 18:35:00,
2013-03-16 14:40:00,73.4,50.0,29.68,SE,135,4.0,5.1,44,0.00,,,0.00,WUHU216HW,2013-03-16 18:40:00,
2013-03-16 14:45:00,73.6,48.4,29.67,SW,225,3.4,5.4,41,0.00,,,0.00,WUHU216HW,2013-03-16 18:45:00,
2013-03-16 14:50:00,74.0,50.0,29.67,SW,225,4.7,6.0,43,0.00,,,0.00,WUHU216HW,2013-03-16 18:50:00,
2013-03-16 14:55:00,74.3,49.7,29.67,ESE,113,4.7,6.0,42,0.00,,,0.00,WUHU216HW,2013-03-16 18:55:00,
2013-03-16 15:00:00,74.7,49.4,29.67,West,270,3.4,6.0,41,0.00,,,0.00,WUHU216HW,2013-03-16 19:00:00,
2013-03-16 15:05:00,74.9,50.2,29.67,NNE,23,2.9,6.0,42,0.00,,,0.00,WUHU216HW,2013-03-16 19:05:00,
2013-03-16 15:10:00,75.1,49.8,29.66,SW,225,1.1,5.6,41,0.00,,,0.00,WUHU216HW,2013-03-16 19:10:00,
2013-03-16 15:15:00,75.2,50.6,29.66,SSW,203,2.5,5.6,42,0.00,,,0.00,WUHU216HW,2013-03-16 19:15:00,
2013-03-16 15:20:00,75.2,50.0,29.66,SSW,203,3.1,4.9,41,0.00,,,0.00,WUHU216HW,2013-03-16 19:20:00,
2013-03-16 15:25:00,75.4,50.1,29.66,SSW,203,1.3,4.9,41,0.00,,,0.00,WUHU216HW,2013-03-16 19:25:00,
2013-03-16 15:30:00,75.6,49.7,29.66,ESE,113,3.4,5.4,40,0.00,,,0.00,WUHU216HW,2013-03-16 19:30:00,
2013-03-16 15:35:00,75.8,49.8,29.65,ENE,68,1.8,5.4,40,0.00,,,0.00,WUHU216HW,2013-03-16 19:35:00,
2013-03-16 15:40:00,76.0,49.2,29.65,SW,225,2.7,5.4,39,0.00,,,0.00,WUHU216HW,2013-03-16 19:40:00,
2013-03-16 15:45:00,76.1,50.1,29.65,ENE,68,4.3,5.4,40,0.00,,,0.00,WUHU216HW,2013-03-16 19:45:00,
2013-03-16 15:50:00,76.3,50.3,29.65,WNW,293,3.4,5.4,40,0.00,,,0.00,WUHU216HW,2013-03-16 19:50:00,
2013-03-16 15:55:00,76.3,49.5,29.64,SW,225,2.0,4.9,39,0.00,,,0.00,WUHU216HW,2013-03-16 19:55:00,
2013-03-16 16:00:00,76.7,50.6,29.64,SW,225,5.4,5.4,40,0.00,,,0.00,WUHU216HW,2013-03-16 20:00:00,
2013-03-16 16:05:00,76.5,49.0,29.64,West,270,4.5,6.3,38,0.00,,,0.00,WUHU216HW,2013-03-16 20:05:00,
2013-03-16 16:10:00,76.7,48.3,29.64,SW,225,3.1,6.3,37,0.00,,,0.00,WUHU216HW,2013-03-16 20:10:00,
2013-03-16 16:15:00,76.9,49.2,29.64,WSW,248,4.0,6.0,38,0.00,,,0.00,WUHU216HW,2013-03-16 20:15:00,
2013-03-16 16:20:00,77.2,49.6,29.64,West,270,1.6,5.6,38,0.00,,,0.00,WUHU216HW,2013-03-16 20:20:00,
2013-03-16 16:25:00,77.4,49.0,29.64,WSW,248,3.6,8.5,37,0.00,,,0.00,WUHU216HW,2013-03-16 20:25:00,
2013-03-16 16:30:00,77.6,49.9,29.64,WSW,248,3.8,8.5,38,0.00,,,0.00,WUHU216HW,2013-03-16 20:30:00,
2013-03-16 16:35:00,77.6,49.1,29.64,West,270,4.9,5.1,37,0.00,,,0.00,WUHU216HW,2013-03-16 20:35:00,
2013-03-16 16:40:00,77.6,49.1,29.63,SSW,203,2.5,6.9,37,0.00,,,0.00,WUHU216HW,2013-03-16 20:40:00,
2013-03-16 16:45:00,77.6,49.1,29.63,WSW,248,2.9,6.9,37,0.00,,,0.00,WUHU216HW,2013-03-16 20:45:00,
2013-03-16 16:50:00,77.4,49.8,29.63,SSW,203,5.6,5.6,38,0.00,,,0.00,WUHU216HW,2013-03-16 20:50:00,
2013-03-16 16:55:00,77.4,49.0,29.63,WSW,248,6.9,6.9,37,0.00,,,0.00,WUHU216HW,2013-03-16 20:55:00,
2013-03-16 17:00:00,77.4,49.0,29.63,West,270,4.7,8.1,37,0.00,,,0.00,WUHU216HW,2013-03-16 21:00:00,
2013-03-16 17:05:00,77.2,48.9,29.63,SSW,203,2.5,8.1,37,0.00,,,0.00,WUHU216HW,2013-03-16 21:05:00,
2013-03-16 17:10:00,77.2,48.9,29.63,NW,315,4.3,6.9,37,0.00,,,0.00,WUHU216HW,2013-03-16 21:10:00,
2013-03-16 17:15:00,77.2,48.9,29.62,West,270,5.4,6.9,37,0.00,,,0.00,WUHU216HW,2013-03-16 21:15:00,
2013-03-16 17:20:00,77.0,48.7,29.62,WSW,248,4.7,9.2,37,0.00,,,0.00,WUHU216HW,2013-03-16 21:20:00,
2013-03-16 17:25:00,77.0,48.7,29.62,WSW,248,4.9,9.2,37,0.00,,,0.00,WUHU216HW,2013-03-16 21:25:00,
2013-03-16 17:30:00,76.9,48.5,29.62,SW,225,6.0,9.6,37,0.00,,,0.00,WUHU216HW,2013-03-16 21:30:00,
2013-03-16 17:35:00,76.9,48.5,29.62,West,270,4.7,9.8,37,0.00,,,0.00,WUHU216HW,2013-03-16 21:35:00,
2013-03-16 17:40:00,76.7,48.3,29.62,East,90,0.9,9.8,37,0.00,,,0.00,WUHU216HW,2013-03-16 21:40:00,
2013-03-16 17:45:00,76.7,49.2,29.62,SW,225,4.0,8.9,38,0.00,,,0.00,WUHU216HW,2013-03-16 21:45:00,
2013-03-16 17:50:00,76.3,48.8,29.62,SW,225,2.5,4.5,38,0.00,,,0.00,WUHU216HW,2013-03-16 21:50:00,
2013-03-16 17:55:00,76.1,47.9,29.62,SW,225,3.6,5.4,37,0.00,,,0.00,WUHU216HW,2013-03-16 21:55:00,
2013-03-16 18:00:00,76.1,47.9,29.62,WSW,248,2.7,6.9,37,0.00,,,0.00,WUHU216HW,2013-03-16 22:00:00,
2013-03-16 18:05:00,76.0,47.7,29.62,West,270,5.4,6.9,37,0.00,,,0.00,WUHU216HW,2013-03-16 22:05:00,
2013-03-16 18:10:00,76.0,47.7,29.61,West,270,3.8,5.8,37,0.00,,,0.00,WUHU216HW,2013-03-16 22:10:00,
2013-03-16 18:15:00,76.0,47.7,29.61,West,270,1.8,5.4,37,0.00,,,0.00,WUHU216HW,2013-03-16 22:15:00,
2013-03-16 18:20:00,75.8,48.3,29.61,SE,135,2.0,4.9,38,0.00,,,0.00,WUHU216HW,2013-03-16 22:20:00,
2013-03-16 18:25:00,75.6,48.2,29.61,SW,225,2.5,4.3,38,0.00,,,0.00,WUHU216HW,2013-03-16 22:25:00,
2013-03-16 18:30:00,75.4,48.0,29.62,SW,225,2.0,5.4,38,0.00,,,0.00,WUHU216HW,2013-03-16 22:30:00,
2013-03-16 18:35:00,75.4,48.0,29.62,WSW,248,4.0,5.4,38,0.00,,,0.00,WUHU216HW,2013-03-16 22:35:00,
2013-03-16 18:40:00,75.2,47.8,29.62,WSW,248,3.1,4.5,38,0.00,,,0.00,WUHU216HW,2013-03-16 22:40:00,
2013-03-16 18:45:00,75.1,47.6,29.62,SSW,203,2.9,5.1,38,0.00,,,0.00,WUHU216HW,2013-03-16 22:45:00,
2013-03-16 18:50:00,75.1,47.6,29.62,West,270,2.5,5.1,38,0.00,,,0.00,WUHU216HW,2013-03-16 22:50:00,
2013-03-16 18:55:00,74.9,47.5,29.62,West,270,3.8,6.7,38,0.00,,,0.00,WUHU216HW,2013-03-16 22:55:00,
2013-03-16 19:00:00,74.9,46.7,29.62,SW,225,9.2,9.2,37,0.00,,,0.00,WUHU216HW,2013-03-16 23:00:00,
2013-03-16 19:05:00,74.7,47.4,29.63,West,270,1.1,9.2,38,0.00,,,0.00,WUHU216HW,2013-03-16 23:05:00,
2013-03-16 19:10:00,74.7,47.4,29.63,West,270,2.7,9.2,38,0.00,,,0.00,WUHU216HW,2013-03-16 23:10:00,
2013-03-16 19:15:00,74.5,47.2,29.63,West,270,1.8,3.4,38,0.00,,,0.00,WUHU216HW,2013-03-16 23:15:00,
2013-03-16 19:20:00,74.3,47.0,29.63,West,270,2.2,3.1,38,0.00,,,0.00,WUHU216HW,2013-03-16 23:20:00,
2013-03-16 19:25:00,74.2,47.6,29.63,SW,225,2.7,3.1,39,0.00,,,0.00,WUHU216HW,2013-03-16 23:25:00,
2013-03-16 19:30:00,74.0,47.4,29.63,West,270,3.8,4.3,39,0.00,,,0.00,WUHU216HW,2013-03-16 23:30:00,
2013-03-16 19:35:00,73.8,47.3,29.64,SSW,203,1.8,4.3,39,0.00,,,0.00,WUHU216HW,2013-03-16 23:35:00,
2013-03-16 19:40:00,73.8,47.3,29.64,WSW,248,2.2,4.7,39,0.00,,,0.00,WUHU216HW,2013-03-16 23:40:00,
2013-03-16 19:45:00,73.8,47.3,29.64,WSW,248,2.5,4.7,39,0.00,,,0.00,WUHU216HW,2013-03-16 23:45:00,
2013-03-16 19:50:00,73.6,47.1,29.64,NW,315,2.9,3.8,39,0.00,,,0.00,WUHU216HW,2013-03-16 23:50:00,
2013-03-16 19:55:00,73.4,47.0,29.65,West,270,1.8,4.5,39,0.00,,,0.00,WUHU216HW,2013-03-16 23:55:00,
2013-03-16 20:00:00,73.4,47.0,29.65,West,270,2.9,4.5,39,0.00,,,0.00,WUHU216HW,2013-03-17 00:00:00,
2013-03-16 20:05:00,73.4,47.0,29.66,WNW,293,0.7,5.6,39,0.00,,,0.00,WUHU216HW,2013-03-17 00:05:00,
2013-03-16 20:10:00,73.3,46.8,29.67,SW,225,2.5,5.6,39,0.00,,,0.00,WUHU216HW,2013-03-17 00:10:00,
2013-03-16 20:15:00,73.1,47.3,29.67,SW,225,2.0,2.9,40,0.00,,,0.00,WUHU216HW,2013-03-17 00:15:00,
2013-03-16 20:20:00,73.1,47.3,29.67,West,270,3.1,4.0,40,0.00,,,0.00,WUHU216HW,2013-03-17 00:20:00,
2013-03-16 20:25:00,72.9,47.3,29.68,SSW,203,2.5,4.0,40,0.00,,,0.00,WUHU216HW,2013-03-17 00:25:00,
2013-03-16 20:30:00,72.7,47.1,29.69,WSW,248,2.2,3.8,40,0.00,,,0.00,WUHU216HW,2013-03-17 00:30:00,
2013-03-16 20:35:00,72.7,47.1,29.69,SW,225,2.5,4.3,40,0.00,,,0.00,WUHU216HW,2013-03-17 00:35:00,
2013-03-16 20:40:00,72.5,46.9,29.70,WNW,293,2.9,5.1,40,0.00,,,0.00,WUHU216HW,2013-03-17 00:40:00,
2013-03-16 20:45:00,72.7,47.1,29.70,SW,225,2.5,5.1,40,0.00,,,0.00,WUHU216HW,2013-03-17 00:45:00,
2013-03-16 20:50:00,72.7,47.1,29.71,West,270,1.1,4.3,40,0.00,,,0.00,WUHU216HW,2013-03-17 00:50:00,
2013-03-16 20:55:00,72.5,47.5,29.72,WSW,248,1.1,4.3,41,0.00,,,0.00,WUHU216HW,2013-03-17 00:55:00,
2013-03-16 21:00:00,72.5,46.9,29.72,West,270,1.1,4.3,40,0.00,,,0.00,WUHU216HW,2013-03-17 01:00:00,
2013-03-16 21:05:00,72.5,46.9,29.73,WNW,293,4.7,4.7,40,0.00,,,0.00,WUHU216HW,2013-03-17 01:05:00,
2013-03-16 21:10:00,72.4,47.4,29.74,West,270,1.6,4.7,41,0.00,,,0.00,WUHU216HW,2013-03-17 01:10:00,
2013-03-16 21:15:00,72.4,47.4,29.74,NW,315,1.1,4.7,41,0.00,,,0.00,WUHU216HW,2013-03-17 01:15:00,
2013-03-16 21:20:00,72.4,47.4,29.75,WNW,293,0.7,2.5,41,0.00,,,0.00,WUHU216HW,2013-03-17 01:20:00,
2013-03-16 21:25:00,72.4,47.4,29.75,West,270,0.4,2.5,41,0.00,,,0.00,WUHU216HW,2013-03-17 01:25:00,
2013-03-16 21:30:00,72.2,47.2,29.75,NW,315,0.4,1.3,41,0.00,,,0.00,WUHU216HW,2013-03-17 01:30:00,
2013-03-16 21:35:00,72.2,47.8,29.75,West,270,0.4,1.3,42,0.00,,,0.00,WUHU216HW,2013-03-17 01:35:00,
2013-03-16 21:40:00,72.0,47.6,29.75,West,270,0.0,1.3,42,0.00,,,0.00,WUHU216HW,2013-03-17 01:40:00,
2013-03-16 21:45:00,71.8,47.4,29.76,West,270,0.0,0.9,42,0.00,,,0.00,WUHU216HW,2013-03-17 01:45:00,
2013-03-16 21:50:00,71.5,47.1,29.76,NNW,338,0.0,1.1,42,0.00,,,0.00,WUHU216HW,2013-03-17 01:50:00,
2013-03-16 21:55:00,71.3,47.5,29.76,NNW,338,0.4,1.1,43,0.00,,,0.00,WUHU216HW,2013-03-17 01:55:00,
2013-03-16 22:00:00,71.1,47.3,29.76,SW,225,0.4,0.9,43,0.00,,,0.00,WUHU216HW,2013-03-17 02:00:00,
2013-03-16 22:05:00,70.9,47.8,29.77,West,270,0.9,1.1,44,0.00,,,0.00,WUHU216HW,2013-03-17 02:05:00,
2013-03-16 22:10:00,70.7,47.6,29.77,West,270,0.0,1.1,44,0.00,,,0.00,WUHU216HW,2013-03-17 02:10:00,
2013-03-16 22:15:00,70.6,47.5,29.77,ENE,68,1.3,1.3,44,0.00,,,0.00,WUHU216HW,2013-03-17 02:15:00,
2013-03-16 22:20:00,70.2,47.8,29.76,East,90,1.1,1.3,45,0.00,,,0.00,WUHU216HW,2013-03-17 02:20:00,
2013-03-16 22:25:00,69.7,47.3,29.77,ESE,113,0.2,1.3,45,0.00,,,0.00,WUHU216HW,2013-03-17 02:25:00,
2013-03-16 22:30:00,69.5,47.7,29.77,ESE,113,0.0,1.1,46,0.00,,,0.00,WUHU216HW,2013-03-17 02:30:00,
2013-03-16 22:35:00,69.1,47.3,29.77,West,270,0.0,1.1,46,0.00,,,0.00,WUHU216HW,2013-03-17 02:35:00,
2013-03-16 22:40:00,69.1,47.3,29.77,West,270,0.0,0.9,46,0.00,,,0.00,WUHU216HW,2013-03-17 02:40:00,
2013-03-16 22:45:00,68.9,47.8,29.78,WSW,248,0.0,0.0,47,0.00,,,0.00,WUHU216HW,2013-03-17 02:45:00,
2013-03-16 22:50:00,68.8,47.1,29.78,WNW,293,0.0,0.0,46,0.00,,,0.00,WUHU216HW,2013-03-17 02:50:00,
2013-03-16 22:55:00,68.2,46.5,29.78,NW,315,0.0,0.0,46,0.00,,,0.00,WUHU216HW,2013-03-17 02:55:00,
2013-03-16 23:00:00,68.0,47.0,29.78,SW,225,0.4,0.4,47,0.00,,,0.00,WUHU216HW,2013-03-17 03:00:00,
2013-03-16 23:05:00,67.7,46.7,29.78,SW,225,0.0,0.4,47,0.00,,,0.00,WUHU216HW,2013-03-17 03:05:00,
2013-03-16 23:10:00,67.3,47.0,29.79,NW,315,0.9,0.9,48,0.00,,,0.00,WUHU216HW,2013-03-17 03:10:00,
2013-03-16 23:15:00,67.0,46.6,29.78,SW,225,0.4,0.9,48,0.00,,,0.00,WUHU216HW,2013-03-17 03:15:00,
2013-03-16 23:20:00,66.8,47.1,29.79,South,180,0.0,0.9,49,0.00,,,0.00,WUHU216HW,2013-03-17 03:20:00,
2013-03-16 23:25:00,66.6,46.9,29.78,South,180,0.0,0.9,49,0.00,,,0.00,WUHU216HW,2013-03-17 03:25:00,
2013-03-16 23:30:00,66.2,46.5,29.79,ESE,113,0.0,0.4,49,0.00,,,0.00,WUHU216HW,2013-03-17 03:30:00,
2013-03-16 23:35:00,65.7,46.6,29.78,ESE,113,0.0,0.4,50,0.00,,,0.00,WUHU216HW,2013-03-17 03:35:00,
2013-03-16 23:40:00,65.5,46.4,29.78,ESE,113,0.0,0.2,50,0.00,,,0.00,WUHU216HW,2013-03-17 03:40:00,
2013-03-16 23:45:00,65.5,46.4,29.79,ESE,113,0.0,0.0,50,0.00,,,0.00,WUHU216HW,2013-03-17 03:45:00,
2013-03-16 23:50:00,65.3,46.7,29.79,ESE,113,0.0,0.0,51,0.00,,,0.00,WUHU216HW,2013-03-17 03:50:00,
2013-03-16 23:55:00,65.2,46.5,29.79,ESE,113,0.0,0.0,51,0.00,,,0.00,WUHU216HW,2013-03-17 03:55:00,